| time (UTC) | temp F | wind direction | speed MPH | gust MPH | rain 1hr in | rain 24hr in | rain mn in | humidity % | barometer mb |
| 20260905000917 | 87 | 112 | 0.0 | 2.0 | 0.00 | 0.00 | 0.00 | 61 | 1003.5 |
| 20260904235919 | 87 | 112 | 0.0 | 0.0 | 0.00 | 0.00 | 0.00 | 62 | 1003.5 |
| 20260904234918 | 86 | 151 | 1.0 | 4.0 | 0.00 | 0.00 | 0.00 | 63 | 1003.5 |
| 20260904233919 | 86 | 91 | 1.0 | 3.0 | 0.00 | 0.00 | 0.00 | 61 | 1003.8 |
| 20260904231918 | 89 | 97 | 2.0 | 4.0 | 0.00 | 0.00 | 0.00 | 57 | 1003.2 |
| 20260904230919 | 89 | 112 | 1.0 | 3.0 | 0.00 | 0.00 | 0.00 | 57 | 1003.5 |
| 20260904225918 | 89 | 145 | 1.0 | 3.0 | 0.00 | 0.00 | 0.00 | 58 | 1003.5 |
| 20260904224917 | 89 | 135 | 1.0 | 3.0 | 0.00 | 0.00 | 0.00 | 60 | 1003.5 |
| 20260904223917 | 90 | 112 | 2.0 | 4.0 | 0.00 | 0.00 | 0.00 | 56 | 1003.2 |
| 20260904222919 | 92 | 180 | 0.0 | 1.0 | 0.00 | 0.00 | 0.00 | 49 | 1003.2 |
| 20260904222017 | 94 | 195 | 2.0 | 6.0 | 0.00 | 0.00 | 0.00 | 48 | 1002.8 |
| 20260904221019 | 93 | 143 | 3.0 | 4.0 | 0.00 | 0.00 | 0.00 | 49 | 1002.8 |
| 20260904215117 | 94 | 173 | 3.0 | 8.0 | 0.00 | 0.00 | 0.00 | 47 | 1002.8 |
| 20260904214216 | 94 | 179 | 1.0 | 4.0 | 0.00 | 0.00 | 0.00 | 45 | 1002.8 |
| 20260904213220 | 93 | 176 | 3.0 | 5.0 | 0.00 | 0.00 | 0.00 | 47 | 1002.8 |
| 20260904212220 | 93 | 224 | 4.0 | 6.0 | 0.00 | 0.00 | 0.00 | 53 | 1003.2 |
| 20260904210218 | 89 | 184 | 2.0 | 7.0 | 0.00 | 0.00 | 0.00 | 61 | 1004.2 |
| 20260904205218 | 88 | 180 | 0.0 | 0.0 | 0.00 | 0.00 | 0.00 | 67 | 1004.2 |
| 20260904204219 | 87 | 180 | 0.0 | 2.0 | 0.00 | 0.00 | 0.00 | 68 | 1004.2 |
| 20260904203217 | 87 | 139 | 0.0 | 2.0 | 0.00 | 0.00 | 0.00 | 68 | 1004.5 |
| 20260904202217 | 86 | 180 | 2.0 | 5.0 | 0.00 | 0.00 | 0.00 | 70 | 1004.9 |
| 20260904201218 | 86 | 180 | 0.0 | 2.0 | 0.00 | 0.00 | 0.00 | 71 | 1005.2 |
| 20260904200234 | 86 | 180 | 0.0 | 0.0 | 0.00 | 0.00 | 0.00 | 70 | 1005.6 |
| 20260904195318 | 85 | 177 | 0.0 | 0.0 | 0.00 | 0.00 | 0.00 | 71 | 1005.6 |
| 20260904193317 | 84 | 112 | 0.0 | 0.0 | 0.00 | 0.00 | 0.00 | 76 | 1005.6 |
| 20260904192318 | 83 | 157 | 0.0 | 1.0 | 0.00 | 0.00 | 0.00 | 79 | 1005.9 |
| 20260904191416 | 82 | 157 | 0.0 | 0.0 | 0.00 | 0.00 | 0.00 | 83 | 1006.2 |
| 20260904190417 | 83 | 180 | 0.0 | 0.0 | 0.00 | 0.00 | 0.00 | 83 | 1006.2 |
| 20260904184418 | 83 | 157 | 0.0 | 0.0 | 0.00 | 0.00 | 0.00 | 84 | 1006.6 |
| 20260904183518 | 83 | 112 | 0.0 | 2.0 | 0.00 | 0.00 | 0.00 | 84 | 1006.6 |
| 20260904182517 | 82 | 180 | 0.0 | 2.0 | 0.00 | 0.00 | 0.00 | 85 | 1006.9 |
| 20260904181518 | 82 | 180 | 0.0 | 1.0 | 0.00 | 0.00 | 0.00 | 84 | 1006.9 |
| 20260904175519 | 82 | 182 | 3.0 | 6.0 | 0.00 | 0.00 | 0.00 | 84 | 1006.9 |
| 20260904174517 | 82 | 180 | 2.0 | 4.0 | 0.00 | 0.00 | 0.00 | 85 | 1007.3 |
| 20260904173517 | 82 | 180 | 1.0 | 6.0 | 0.00 | 0.00 | 0.00 | 86 | 1007.3 |
| 20260904171520 | 82 | 180 | 0.0 | 0.0 | 0.00 | 0.00 | 0.00 | 88 | 1007.6 |
| 20260904170517 | 81 | 145 | 1.0 | 4.0 | 0.00 | 0.00 | 0.00 | 89 | 1007.3 |
| 20260904165519 | 82 | 180 | 0.0 | 0.0 | 0.00 | 0.00 | 0.00 | 87 | 1007.3 |
| 20260904163519 | 82 | 157 | 0.0 | 0.0 | 0.00 | 0.00 | 0.00 | 85 | 1006.9 |
| 20260904162517 | 82 | 157 | 0.0 | 0.0 | 0.00 | 0.00 | 0.00 | 85 | 1006.9 |
| 20260904160519 | 82 | 333 | 0.0 | 0.0 | 0.00 | 0.00 | 0.00 | 87 | 1006.9 |
| 20260904155517 | 81 | 337 | 0.0 | 0.0 | 0.00 | 0.00 | 0.00 | 89 | 1006.9 |
| 20260904154519 | 81 | 337 | 1.0 | 4.0 | 0.00 | 0.00 | 0.00 | 92 | 1006.9 |
| 20260904152517 | 80 | 292 | 0.0 | 0.0 | 0.00 | 0.00 | 0.00 | 95 | 1006.9 |
| 20260904150518 | 79 | 180 | 0.0 | 2.0 | 0.00 | 0.00 | 0.00 | 96 | 1006.9 |
| 20260904145516 | 78 | 152 | 0.0 | 1.0 | 0.00 | 0.00 | 0.00 | 97 | 1006.9 |
| 20260904144517 | 78 | 257 | 0.0 | 1.0 | 0.00 | 0.00 | 0.00 | 97 | 1007.3 |
| 20260904143519 | 78 | 180 | 0.0 | 2.0 | 0.00 | 0.00 | 0.00 | 97 | 1007.3 |
| 20260904142518 | 78 | 157 | 0.0 | 0.0 | 0.00 | 0.00 | 0.00 | 97 | 1006.9 |
| 20260904141517 | 78 | 174 | 0.0 | 5.0 | 0.00 | 0.00 | 0.00 | 97 | 1006.9 |
| 20260904140616 | 77 | 159 | 0.0 | 2.0 | 0.00 | 0.00 | 0.00 | 96 | 1006.9 |
| 20260904135617 | 77 | 179 | 1.0 | 5.0 | 0.00 | 0.00 | 0.00 | 96 | 1006.9 |
| 20260904134616 | 77 | 157 | 1.0 | 3.0 | 0.00 | 0.00 | 0.00 | 96 | 1006.9 |
| 20260904133617 | 78 | 270 | 0.0 | 2.0 | 0.00 | 0.00 | 0.00 | 97 | 1006.9 |
| 20260904132715 | 78 | 157 | 0.0 | 1.0 | 0.00 | 0.00 | 0.00 | 97 | 1006.9 |
| 20260904131718 | 78 | 180 | 1.0 | 4.0 | 0.00 | 0.00 | 0.00 | 97 | 1006.9 |
| 20260904130719 | 78 | 180 | 0.0 | 0.0 | 0.00 | 0.00 | 0.00 | 97 | 1006.9 |
| 20260904124816 | 77 | 180 | 0.0 | 1.0 | 0.00 | 0.00 | 0.00 | 96 | 1006.9 |
| 20260904123819 | 77 | 180 | 0.0 | 1.0 | 0.00 | 0.00 | 0.00 | 96 | 1006.9 |
| 20260904122817 | 77 | 135 | 0.0 | 0.0 | 0.00 | 0.00 | 0.00 | 95 | 1006.6 |
| 20260904121916 | 77 | 135 | 0.0 | 0.0 | 0.00 | 0.00 | 0.00 | 96 | 1006.6 |
| 20260904120917 | 77 | 112 | 0.0 | 0.0 | 0.00 | 0.00 | 0.00 | 95 | 1006.2 |
| 20260904115917 | 77 | 180 | 0.0 | 0.0 | 0.00 | 0.00 | 0.00 | 96 | 1006.2 |
| 20260904115016 | 77 | 105 | 0.0 | 0.0 | 0.00 | 0.00 | 0.00 | 97 | 1006.2 |
| 20260904114018 | 77 | 135 | 0.0 | 0.0 | 0.00 | 0.00 | 0.00 | 97 | 1006.2 |
| 20260904113116 | 77 | 135 | 0.0 | 0.0 | 0.00 | 0.00 | 0.00 | 97 | 1006.2 |
| 20260904112118 | 77 | 141 | 1.0 | 5.0 | 0.00 | 0.00 | 0.00 | 97 | 1006.2 |
| 20260904111118 | 77 | 157 | 0.0 | 0.0 | 0.00 | 0.00 | 0.00 | 97 | 1005.9 |
| 20260904110117 | 77 | 157 | 0.0 | 1.0 | 0.00 | 0.00 | 0.00 | 97 | 1005.9 |
| 20260904105117 | 77 | 180 | 0.0 | 0.0 | 0.00 | 0.00 | 0.00 | 97 | 1005.9 |
| 20260904104116 | 78 | 135 | 0.0 | 3.0 | 0.00 | 0.00 | 0.00 | 97 | 1005.6 |
| 20260904103118 | 78 | 142 | 0.0 | 5.0 | 0.00 | 0.00 | 0.00 | 97 | 1005.6 |
| 20260904102217 | 78 | 180 | 0.0 | 0.0 | 0.00 | 0.00 | 0.00 | 97 | 1005.6 |
| 20260904101216 | 78 | 180 | 0.0 | 0.0 | 0.00 | 0.00 | 0.00 | 97 | 1005.6 |
| 20260904100217 | 78 | 112 | 0.0 | 0.0 | 0.00 | 0.00 | 0.00 | 97 | 1005.6 |
| 20260904095217 | 78 | 157 | 1.0 | 5.0 | 0.00 | 0.00 | 0.00 | 97 | 1005.6 |
| 20260904094216 | 78 | 180 | 0.0 | 2.0 | 0.00 | 0.00 | 0.00 | 97 | 1005.2 |
| 20260904093233 | 78 | 165 | 1.0 | 4.0 | 0.00 | 0.00 | 0.00 | 97 | 1005.2 |
| 20260904092218 | 78 | 158 | 0.0 | 1.0 | 0.00 | 0.00 | 0.00 | 97 | 1005.6 |
| 20260904091315 | 78 | 167 | 1.0 | 4.0 | 0.00 | 0.00 | 0.00 | 97 | 1005.6 |
| 20260904090319 | 78 | 177 | 2.0 | 6.0 | 0.00 | 0.00 | 0.00 | 97 | 1005.2 |
| 20260904085318 | 78 | 182 | 0.0 | 1.0 | 0.00 | 0.00 | 0.00 | 97 | 1005.6 |
| 20260904083318 | 78 | 176 | 2.0 | 7.0 | 0.00 | 0.00 | 0.00 | 96 | 1005.6 |
| 20260904081316 | 78 | 186 | 1.0 | 7.0 | 0.00 | 0.00 | 0.00 | 96 | 1005.2 |
| 20260904080317 | 78 | 215 | 0.0 | 1.0 | 0.00 | 0.00 | 0.00 | 96 | 1005.6 |
| 20260904075316 | 78 | 142 | 1.0 | 5.0 | 0.00 | 0.00 | 0.00 | 96 | 1005.6 |
| 20260904073318 | 78 | 176 | 0.0 | 2.0 | 0.00 | 0.00 | 0.00 | 95 | 1005.6 |
| 20260904072317 | 78 | 159 | 1.0 | 5.0 | 0.00 | 0.00 | 0.00 | 95 | 1005.6 |
| 20260904071316 | 78 | 180 | 1.0 | 3.0 | 0.00 | 0.00 | 0.00 | 95 | 1005.6 |
| 20260904070415 | 78 | 176 | 3.0 | 6.0 | 0.00 | 0.00 | 0.00 | 94 | 1005.6 |
| 20260904065419 | 79 | 180 | 0.0 | 2.0 | 0.00 | 0.00 | 0.00 | 93 | 1005.6 |
| 20260904064516 | 79 | 157 | 2.0 | 6.0 | 0.00 | 0.00 | 0.00 | 93 | 1005.6 |
| 20260904063517 | 79 | 160 | 1.0 | 4.0 | 0.00 | 0.00 | 0.00 | 93 | 1005.6 |
| 20260904062616 | 79 | 180 | 0.0 | 1.0 | 0.00 | 0.00 | 0.00 | 92 | 1005.6 |
| 20260904061617 | 78 | 180 | 1.0 | 6.0 | 0.00 | 0.00 | 0.00 | 92 | 1005.6 |
| 20260904060716 | 78 | 180 | 0.0 | 2.0 | 0.00 | 0.00 | 0.00 | 92 | 1005.6 |
| 20260904054716 | 78 | 180 | 0.0 | 2.0 | 0.00 | 0.00 | 0.00 | 91 | 1005.6 |
| 20260904053719 | 78 | 117 | 1.0 | 3.0 | 0.00 | 0.00 | 0.00 | 91 | 1005.6 |
| 20260904052719 | 78 | 174 | 1.0 | 6.0 | 0.00 | 0.00 | 0.00 | 91 | 1005.6 |
| 20260904051717 | 78 | 142 | 1.0 | 5.0 | 0.00 | 0.00 | 0.00 | 91 | 1005.6 |
| 20260904050816 | 77 | 180 | 0.0 | 0.0 | 0.00 | 0.00 | 0.00 | 91 | 1005.6 |
| 20260904045915 | 78 | 177 | 0.0 | 2.0 | 0.00 | 0.00 | 0.00 | 92 | 1005.6 |
| 20260904044917 | 78 | 148 | 2.0 | 5.0 | 0.00 | 0.00 | 0.00 | 92 | 1005.6 |
| 20260904043915 | 78 | 157 | 1.0 | 3.0 | 0.00 | 0.00 | 0.00 | 92 | 1005.6 |
| 20260904042917 | 78 | 154 | 2.0 | 5.0 | 0.00 | 0.00 | 0.00 | 91 | 1005.6 |
| 20260904041018 | 78 | 145 | 2.0 | 5.0 | 0.00 | 0.00 | 0.00 | 91 | 1005.6 |
| 20260904040016 | 78 | 180 | 0.0 | 2.0 | 0.00 | 0.00 | 0.00 | 90 | 1005.2 |
| 20260904034016 | 77 | 130 | 2.0 | 5.0 | 0.00 | 0.00 | 0.00 | 89 | 1005.2 |
| 20260904033016 | 79 | 135 | 1.0 | 3.0 | 0.00 | 0.00 | 0.00 | 89 | 1005.2 |
| 20260904032017 | 79 | 157 | 1.0 | 2.0 | 0.00 | 0.00 | 0.00 | 88 | 1005.2 |
| 20260904025018 | 79 | 128 | 2.0 | 5.0 | 0.00 | 0.00 | 0.00 | 85 | 1004.9 |
| 20260904023116 | 80 | 135 | 1.0 | 2.0 | 0.00 | 0.00 | 0.00 | 83 | 1004.9 |
| 20260904022117 | 80 | 142 | 2.0 | 5.0 | 0.00 | 0.00 | 0.00 | 81 | 1004.9 |
| 20260904021214 | 80 | 135 | 2.0 | 3.0 | 0.00 | 0.00 | 0.00 | 80 | 1004.5 |
| 20260904015315 | 81 | 167 | 0.0 | 3.0 | 0.00 | 0.00 | 0.00 | 76 | 1004.2 |
| 20260904014315 | 81 | 112 | 0.0 | 2.0 | 0.00 | 0.00 | 0.00 | 74 | 1003.8 |
| 20260904013317 | 82 | 135 | 2.0 | 4.0 | 0.00 | 0.00 | 0.00 | 73 | 1003.5 |
| 20260904012316 | 82 | 135 | 2.0 | 5.0 | 0.00 | 0.00 | 0.00 | 72 | 1003.5 |
| 20260904010514 | 83 | 135 | 1.0 | 3.0 | 0.00 | 0.00 | 0.00 | 71 | 1003.5 |
| 20260904005514 | 83 | 135 | 0.0 | 0.0 | 0.00 | 0.00 | 0.00 | 69 | 1003.5 |
| 20260904004517 | 84 | 127 | 0.0 | 3.0 | 0.00 | 0.00 | 0.00 | 70 | 1003.5 |
| 20260904003614 | 84 | 163 | 0.0 | 0.0 | 0.00 | 0.00 | 0.00 | 68 | 1003.5 |
| 20260904002616 | 85 | 120 | 1.0 | 4.0 | 0.00 | 0.00 | 0.00 | 68 | 1003.2 |